Time,TemperatureF,DewpointF,PressureIn,WindDirection,WindDirectionDegrees,WindSpeedMPH,WindSpeedGustMPH,Humidity,HourlyPrecipIn,Conditions,Clouds,dailyrainin,SoftwareType,DateUTC
2013-01-12 00:00:00,48.7,45.0,30.14,NNE,22,0.0,0.0,87,0.00,,CLR,0.35,VWS V12.08,2013-01-12 05:00:00,
2013-01-12 00:01:00,48.7,45.0,30.14,NNE,22,0.0,0.0,87,0.00,,CLR,0.35,VWS V12.08,2013-01-12 05:01:00,
2013-01-12 00:06:00,48.9,45.2,30.14,NNE,22,0.0,0.0,87,0.00,,CLR,0.32,VWS V12.08,2013-01-12 05:06:00,
2013-01-12 00:11:00,48.9,45.2,30.13,NNE,22,0.0,0.0,87,0.00,,CLR,0.32,VWS V12.08,2013-01-12 05:11:00,
2013-01-12 00:16:00,48.9,45.2,30.13,NNE,22,0.0,0.0,87,0.00,,CLR,0.32,VWS V12.08,2013-01-12 05:16:00,
2013-01-12 00:21:00,48.9,45.2,30.13,NNE,22,0.0,0.0,87,0.00,,CLR,0.32,VWS V12.08,2013-01-12 05:21:00,
2013-01-12 00:26:00,48.9,45.2,30.13,NNE,22,0.0,0.0,87,0.00,,CLR,0.32,VWS V12.08,2013-01-12 05:26:00,
2013-01-12 00:31:00,49.1,45.4,30.13,NNE,22,0.0,0.0,87,0.00,,CLR,0.32,VWS V12.08,2013-01-12 05:31:00,
2013-01-12 00:36:00,48.9,45.2,30.13,NNE,22,0.0,0.0,87,0.00,,CLR,0.32,VWS V12.08,2013-01-12 05:36:00,
2013-01-12 00:41:00,48.9,45.2,30.13,NNE,22,0.0,0.0,87,0.00,,CLR,0.32,VWS V12.08,2013-01-12 05:41:00,
2013-01-12 00:46:00,48.9,45.2,30.13,NNE,22,0.0,0.0,87,0.00,,CLR,0.32,VWS V12.08,2013-01-12 05:46:00,
2013-01-12 00:51:00,48.9,45.2,30.12,NNE,22,0.0,0.0,87,0.00,,CLR,0.32,VWS V12.08,2013-01-12 05:51:00,
2013-01-12 00:56:00,48.9,45.2,30.12,NE,45,0.0,0.0,87,0.00,,CLR,0.32,VWS V12.08,2013-01-12 05:56:00,
2013-01-12 01:01:00,48.9,45.2,30.12,NE,45,0.0,0.0,87,0.00,,CLR,0.30,VWS V12.08,2013-01-12 06:01:00,
2013-01-12 01:06:00,48.9,45.2,30.11,NE,45,0.0,0.0,87,0.00,,CLR,0.30,VWS V12.08,2013-01-12 06:06:00,
2013-01-12 01:11:00,48.9,45.2,30.12,NE,45,0.0,0.0,87,0.00,,CLR,0.30,VWS V12.08,2013-01-12 06:11:00,
2013-01-12 01:16:00,48.9,45.2,30.12,NE,45,0.0,0.0,87,0.00,,CLR,0.30,VWS V12.08,2013-01-12 06:16:00,
2013-01-12 01:21:00,49.1,45.4,30.12,NNE,22,0.0,0.0,87,0.00,,CLR,0.30,VWS V12.08,2013-01-12 06:21:00,
2013-01-12 01:26:00,49.1,45.7,30.12,NNE,22,0.0,0.0,88,0.00,,CLR,0.30,VWS V12.08,2013-01-12 06:26:00,
2013-01-12 01:31:00,49.1,45.7,30.12,NNE,22,0.0,0.0,88,0.00,,CLR,0.30,VWS V12.08,2013-01-12 06:31:00,
2013-01-12 01:36:00,49.1,45.7,30.11,NNE,22,0.0,0.0,88,0.00,,CLR,0.30,VWS V12.08,2013-01-12 06:36:00,
2013-01-12 01:41:00,49.1,45.7,30.12,NE,45,0.0,0.0,88,0.00,,CLR,0.30,VWS V12.08,2013-01-12 06:41:00,
2013-01-12 01:46:00,49.1,45.7,30.11,NE,45,0.0,0.0,88,0.00,,CLR,0.30,VWS V12.08,2013-01-12 06:46:00,
2013-01-12 01:51:00,49.1,45.7,30.12,ENE,68,0.0,0.0,88,0.00,,CLR,0.30,VWS V12.08,2013-01-12 06:51:00,
2013-01-12 01:56:00,49.1,45.7,30.12,ENE,68,0.0,0.0,88,0.00,,CLR,0.30,VWS V12.08,2013-01-12 06:56:00,
2013-01-12 02:02:00,49.1,45.7,30.12,ENE,68,0.0,0.0,88,0.00,,CLR,0.30,VWS V12.08,2013-01-12 07:02:00,
2013-01-12 02:07:00,49.1,45.7,30.12,ENE,68,0.9,0.9,88,0.00,,CLR,0.30,VWS V12.08,2013-01-12 07:07:00,
2013-01-12 02:12:00,49.1,45.7,30.12,ENE,68,0.0,0.9,88,0.00,,CLR,0.30,VWS V12.08,2013-01-12 07:12:00,
2013-01-12 02:17:00,48.9,45.5,30.12,ENE,68,0.0,0.9,88,0.00,,CLR,0.30,VWS V12.08,2013-01-12 07:17:00,
2013-01-12 02:22:00,48.9,45.5,30.12,ENE,68,0.0,0.0,88,0.00,,CLR,0.30,VWS V12.08,2013-01-12 07:22:00,
2013-01-12 02:27:00,48.9,45.5,30.12,ENE,68,0.0,0.0,88,0.00,,CLR,0.30,VWS V12.08,2013-01-12 07:27:00,
2013-01-12 02:32:00,48.9,45.5,30.12,ENE,68,0.0,0.0,88,0.00,,CLR,0.30,VWS V12.08,2013-01-12 07:32:00,
2013-01-12 02:37:00,48.9,45.5,30.12,ENE,68,0.0,0.0,88,0.00,,CLR,0.30,VWS V12.08,2013-01-12 07:37:00,
2013-01-12 02:42:00,48.9,45.5,30.12,ENE,68,0.0,0.0,88,0.00,,CLR,0.30,VWS V12.08,2013-01-12 07:42:00,
2013-01-12 02:47:00,48.9,45.5,30.13,ENE,68,0.0,0.0,88,0.00,,CLR,0.30,VWS V12.08,2013-01-12 07:47:00,
2013-01-12 02:52:00,48.9,45.5,30.12,ENE,68,0.0,0.0,88,0.00,,CLR,0.30,VWS V12.08,2013-01-12 07:52:00,
2013-01-12 02:57:00,48.9,45.5,30.12,ENE,68,0.0,0.0,88,0.00,,CLR,0.30,VWS V12.08,2013-01-12 07:57:00,
2013-01-12 03:02:00,48.9,45.5,30.12,ENE,68,0.0,0.0,88,0.00,,CLR,0.26,VWS V12.08,2013-01-12 08:02:00,
2013-01-12 03:07:00,48.9,45.5,30.12,East,90,0.0,0.0,88,0.00,,CLR,0.26,VWS V12.08,2013-01-12 08:07:00,
2013-01-12 03:12:00,48.9,45.5,30.11,East,90,0.0,0.0,88,0.00,,CLR,0.26,VWS V12.08,2013-01-12 08:12:00,
2013-01-12 03:17:00,48.9,45.5,30.11,East,90,0.0,0.0,88,0.00,,CLR,0.26,VWS V12.08,2013-01-12 08:17:00,
2013-01-12 03:22:00,48.9,45.5,30.11,East,90,0.0,0.0,88,0.00,,CLR,0.26,VWS V12.08,2013-01-12 08:22:00,
2013-01-12 03:27:00,48.9,45.5,30.11,East,90,0.0,0.0,88,0.00,,CLR,0.26,VWS V12.08,2013-01-12 08:27:00,
2013-01-12 03:32:00,48.7,45.3,30.11,East,90,0.0,0.0,88,0.00,,CLR,0.26,VWS V12.08,2013-01-12 08:32:00,
2013-01-12 03:37:00,48.7,45.3,30.11,East,90,0.0,0.0,88,0.00,,CLR,0.26,VWS V12.08,2013-01-12 08:37:00,
2013-01-12 03:42:00,48.7,45.3,30.10,East,90,0.0,0.0,88,0.00,,CLR,0.26,VWS V12.08,2013-01-12 08:42:00,
2013-01-12 03:47:00,48.7,45.3,30.10,East,90,0.0,0.0,88,0.00,,CLR,0.26,VWS V12.08,2013-01-12 08:47:00,
2013-01-12 03:52:00,48.7,45.3,30.10,East,90,0.0,0.0,88,0.00,,CLR,0.26,VWS V12.08,2013-01-12 08:52:00,
2013-01-12 03:57:00,48.7,45.3,30.10,East,90,0.0,0.0,88,0.00,,CLR,0.26,VWS V12.08,2013-01-12 08:57:00,
2013-01-12 04:02:00,48.7,45.3,30.10,East,90,0.0,0.0,88,0.00,,CLR,0.24,VWS V12.08,2013-01-12 09:02:00,
2013-01-12 04:07:00,48.7,45.3,30.09,East,90,0.0,0.0,88,0.00,,CLR,0.24,VWS V12.08,2013-01-12 09:07:00,
2013-01-12 04:12:00,48.7,45.3,30.09,East,90,0.0,0.0,88,0.00,,CLR,0.24,VWS V12.08,2013-01-12 09:12:00,
2013-01-12 04:17:00,48.7,45.3,30.09,East,90,0.0,0.0,88,0.00,,CLR,0.24,VWS V12.08,2013-01-12 09:17:00,
2013-01-12 04:22:00,48.7,45.3,30.09,East,90,0.0,0.0,88,0.00,,CLR,0.24,VWS V12.08,2013-01-12 09:22:00,
2013-01-12 04:27:00,48.6,45.2,30.09,East,90,0.0,0.0,88,0.00,,CLR,0.24,VWS V12.08,2013-01-12 09:27:00,
2013-01-12 04:32:00,48.6,45.2,30.09,East,90,0.0,0.0,88,0.00,,CLR,0.24,VWS V12.08,2013-01-12 09:32:00,
2013-01-12 04:37:00,48.6,45.2,30.09,East,90,0.0,0.0,88,0.00,,CLR,0.24,VWS V12.08,2013-01-12 09:37:00,
2013-01-12 04:42:00,48.6,45.2,30.09,East,90,0.0,0.0,88,0.00,,CLR,0.24,VWS V12.08,2013-01-12 09:42:00,
2013-01-12 04:47:00,48.6,45.2,30.09,East,90,0.0,0.0,88,0.00,,CLR,0.24,VWS V12.08,2013-01-12 09:47:00,
2013-01-12 04:52:00,48.6,45.2,30.09,East,90,0.0,0.0,88,0.00,,CLR,0.24,VWS V12.08,2013-01-12 09:52:00,
2013-01-12 04:57:00,48.6,45.2,30.09,East,90,0.0,0.0,88,0.00,,CLR,0.24,VWS V12.08,2013-01-12 09:57:00,
2013-01-12 05:02:00,48.6,45.2,30.10,East,90,0.0,0.0,88,0.00,,CLR,0.24,VWS V12.08,2013-01-12 10:02:00,
2013-01-12 05:07:00,48.6,45.2,30.10,East,90,0.0,0.0,88,0.00,,CLR,0.22,VWS V12.08,2013-01-12 10:07:00,
2013-01-12 05:12:00,48.6,45.2,30.09,East,90,0.0,0.0,88,0.00,,CLR,0.22,VWS V12.08,2013-01-12 10:12:00,
2013-01-12 05:17:00,48.6,45.2,30.09,East,90,0.0,0.0,88,0.00,,CLR,0.22,VWS V12.08,2013-01-12 10:17:00,
2013-01-12 05:22:00,48.7,45.3,30.09,East,90,0.0,0.0,88,0.00,,CLR,0.22,VWS V12.08,2013-01-12 10:22:00,
2013-01-12 05:27:00,48.7,45.3,30.09,East,90,0.0,0.0,88,0.00,,CLR,0.22,VWS V12.08,2013-01-12 10:27:00,
2013-01-12 05:32:00,48.7,45.3,30.10,East,90,0.0,0.0,88,0.00,,CLR,0.22,VWS V12.08,2013-01-12 10:32:00,
2013-01-12 05:37:00,48.7,45.3,30.09,East,90,0.0,0.0,88,0.00,,CLR,0.22,VWS V12.08,2013-01-12 10:37:00,
2013-01-12 05:42:00,48.7,45.3,30.09,East,90,0.0,0.0,88,0.00,,CLR,0.22,VWS V12.08,2013-01-12 10:42:00,
2013-01-12 05:47:00,48.7,45.3,30.09,East,90,0.0,0.0,88,0.00,,CLR,0.22,VWS V12.08,2013-01-12 10:47:00,
2013-01-12 05:52:00,48.7,45.3,30.09,East,90,0.0,0.0,88,0.00,,CLR,0.22,VWS V12.08,2013-01-12 10:52:00,
2013-01-12 05:57:00,48.7,45.3,30.09,East,90,0.0,0.0,88,0.00,,CLR,0.22,VWS V12.08,2013-01-12 10:57:00,
2013-01-12 06:02:00,48.7,45.3,30.09,East,90,0.0,0.0,88,0.00,,CLR,0.19,VWS V12.08,2013-01-12 11:02:00,
2013-01-12 06:07:00,48.7,45.3,30.09,East,90,0.0,0.0,88,0.00,,CLR,0.19,VWS V12.08,2013-01-12 11:07:00,
2013-01-12 06:12:00,48.7,45.3,30.10,East,90,0.0,0.0,88,0.00,,CLR,0.19,VWS V12.08,2013-01-12 11:12:00,
2013-01-12 06:17:00,48.7,45.3,30.10,East,90,0.0,0.0,88,0.00,,CLR,0.19,VWS V12.08,2013-01-12 11:17:00,
2013-01-12 06:22:00,48.9,45.5,30.10,East,90,0.0,0.0,88,0.00,,CLR,0.19,VWS V12.08,2013-01-12 11:22:00,
2013-01-12 06:27:00,48.9,45.5,30.10,East,90,0.0,0.0,88,0.00,,CLR,0.19,VWS V12.08,2013-01-12 11:27:00,
2013-01-12 06:32:00,48.9,45.5,30.10,East,90,0.0,0.0,88,0.00,,CLR,0.19,VWS V12.08,2013-01-12 11:32:00,
2013-01-12 06:37:00,48.9,45.5,30.10,East,90,0.0,0.0,88,0.00,,CLR,0.19,VWS V12.08,2013-01-12 11:37:00,
2013-01-12 06:42:00,49.1,45.7,30.10,East,90,0.0,0.0,88,0.00,,CLR,0.19,VWS V12.08,2013-01-12 11:42:00,
2013-01-12 06:47:00,49.1,45.7,30.11,East,90,0.0,0.0,88,0.00,,CLR,0.19,VWS V12.08,2013-01-12 11:47:00,
2013-01-12 06:52:00,49.1,45.7,30.11,East,90,0.0,0.0,88,0.00,,CLR,0.19,VWS V12.08,2013-01-12 11:52:00,
2013-01-12 06:57:00,49.1,45.7,30.11,East,90,0.0,0.0,88,0.00,,CLR,0.19,VWS V12.08,2013-01-12 11:57:00,
2013-01-12 07:02:00,49.1,45.7,30.11,East,90,0.0,0.0,88,0.00,,CLR,0.19,VWS V12.08,2013-01-12 12:02:00,
2013-01-12 07:07:00,49.1,45.7,30.11,East,90,0.0,0.0,88,0.00,,CLR,0.13,VWS V12.08,2013-01-12 12:07:00,
2013-01-12 07:12:00,49.1,45.7,30.11,East,90,0.0,0.0,88,0.00,,CLR,0.13,VWS V12.08,2013-01-12 12:12:00,
2013-01-12 07:17:00,49.1,46.0,30.11,East,90,0.0,0.0,89,0.02,,CLR,0.15,VWS V12.08,2013-01-12 12:17:00,
2013-01-12 07:22:00,49.3,46.2,30.12,East,90,0.0,0.0,89,0.02,,CLR,0.15,VWS V12.08,2013-01-12 12:22:00,
2013-01-12 07:27:00,49.3,46.2,30.12,East,90,0.0,0.0,89,0.02,,CLR,0.15,VWS V12.08,2013-01-12 12:27:00,
2013-01-12 07:32:00,49.3,46.2,30.11,East,90,0.0,0.0,89,0.02,,CLR,0.15,VWS V12.08,2013-01-12 12:32:00,
2013-01-12 07:37:00,49.3,46.2,30.11,East,90,0.0,0.0,89,0.02,,CLR,0.15,VWS V12.08,2013-01-12 12:37:00,
2013-01-12 07:42:00,49.3,46.2,30.11,East,90,0.0,0.0,89,0.02,,CLR,0.15,VWS V12.08,2013-01-12 12:42:00,
2013-01-12 07:47:00,49.3,46.2,30.12,East,90,0.0,0.0,89,0.02,,CLR,0.15,VWS V12.08,2013-01-12 12:47:00,
2013-01-12 07:52:00,49.6,46.5,30.12,East,90,0.0,0.0,89,0.02,,CLR,0.15,VWS V12.08,2013-01-12 12:52:00,
2013-01-12 07:57:00,49.6,46.5,30.11,East,90,0.0,0.0,89,0.02,,CLR,0.15,VWS V12.08,2013-01-12 12:57:00,
2013-01-12 08:02:00,49.6,46.5,30.12,East,90,0.0,0.0,89,0.02,,CLR,0.13,VWS V12.08,2013-01-12 13:02:00,
2013-01-12 08:07:00,49.6,46.5,30.12,East,90,0.0,0.0,89,0.02,,CLR,0.13,VWS V12.08,2013-01-12 13:07:00,
2013-01-12 08:12:00,49.8,46.7,30.12,East,90,0.0,0.0,89,0.02,,CLR,0.13,VWS V12.08,2013-01-12 13:12:00,
2013-01-12 08:17:00,49.8,46.7,30.11,East,90,0.0,0.0,89,0.00,,CLR,0.13,VWS V12.08,2013-01-12 13:17:00,
2013-01-12 08:22:00,50.2,47.1,30.12,East,90,0.0,0.0,89,0.00,,CLR,0.13,VWS V12.08,2013-01-12 13:22:00,
2013-01-12 08:27:00,50.2,47.1,30.12,East,90,0.0,0.0,89,0.00,,CLR,0.13,VWS V12.08,2013-01-12 13:27:00,
2013-01-12 08:32:00,50.4,47.2,30.13,NW,315,0.0,0.0,89,0.00,,CLR,0.13,VWS V12.08,2013-01-12 13:32:00,
2013-01-12 08:37:00,50.4,47.2,30.13,NW,315,0.0,0.0,89,0.00,,CLR,0.13,VWS V12.08,2013-01-12 13:37:00,
2013-01-12 08:42:00,50.5,47.4,30.13,NW,315,0.0,0.0,89,0.00,,CLR,0.13,VWS V12.08,2013-01-12 13:42:00,
2013-01-12 08:47:00,50.5,47.4,30.13,North,0,0.0,0.0,89,0.00,,CLR,0.13,VWS V12.08,2013-01-12 13:47:00,
2013-01-12 08:52:00,50.7,47.6,30.13,NNE,22,0.0,0.0,89,0.00,,CLR,0.13,VWS V12.08,2013-01-12 13:52:00,
2013-01-12 08:57:00,50.9,47.8,30.13,NNE,22,0.0,0.0,89,0.00,,CLR,0.13,VWS V12.08,2013-01-12 13:57:00,
2013-01-12 09:02:00,50.9,47.8,30.13,NNE,22,0.0,0.0,89,0.00,,CLR,0.09,VWS V12.08,2013-01-12 14:02:00,
2013-01-12 09:07:00,51.3,48.1,30.13,NNE,22,0.0,0.0,89,0.00,,CLR,0.09,VWS V12.08,2013-01-12 14:07:00,
2013-01-12 09:12:00,51.4,48.3,30.13,NNE,22,0.0,0.0,89,0.00,,CLR,0.09,VWS V12.08,2013-01-12 14:12:00,
2013-01-12 09:17:00,51.4,48.3,30.13,NNE,22,0.0,0.0,89,0.00,,CLR,0.09,VWS V12.08,2013-01-12 14:17:00,
2013-01-12 09:22:00,51.6,48.5,30.13,NNE,22,0.0,0.0,89,0.00,,CLR,0.09,VWS V12.08,2013-01-12 14:22:00,
2013-01-12 09:27:00,51.6,48.5,30.13,NNE,22,0.0,0.0,89,0.00,,CLR,0.09,VWS V12.08,2013-01-12 14:27:00,
2013-01-12 09:32:00,52.0,48.8,30.13,NNE,22,0.0,0.0,89,0.00,,CLR,0.09,VWS V12.08,2013-01-12 14:32:00,
2013-01-12 09:37:00,52.2,49.0,30.14,NW,315,0.0,0.7,89,0.00,,CLR,0.09,VWS V12.08,2013-01-12 14:37:00,
2013-01-12 09:42:00,52.3,49.2,30.14,NW,315,0.0,0.0,89,0.00,,CLR,0.09,VWS V12.08,2013-01-12 14:42:00,
2013-01-12 09:47:00,52.7,49.5,30.14,NNW,338,0.0,0.0,89,0.00,,CLR,0.09,VWS V12.08,2013-01-12 14:47:00,
2013-01-12 09:52:00,52.9,49.7,30.14,North,0,0.0,0.0,89,0.00,,CLR,0.09,VWS V12.08,2013-01-12 14:52:00,
2013-01-12 09:57:00,52.9,49.7,30.14,North,0,0.0,0.0,89,0.00,,CLR,0.09,VWS V12.08,2013-01-12 14:57:00,
2013-01-12 10:02:00,53.4,50.3,30.14,North,0,0.0,0.0,89,0.00,,CLR,0.04,VWS V12.08,2013-01-12 15:02:00,
2013-01-12 10:07:00,53.4,50.3,30.14,North,0,0.0,0.0,89,0.00,,CLR,0.04,VWS V12.08,2013-01-12 15:07:00,
2013-01-12 10:12:00,53.8,50.9,30.14,North,0,0.0,0.0,90,0.00,,CLR,0.04,VWS V12.08,2013-01-12 15:12:00,
2013-01-12 10:17:00,54.0,51.1,30.14,North,0,0.0,0.0,90,0.00,,CLR,0.04,VWS V12.08,2013-01-12 15:17:00,
2013-01-12 10:22:00,54.3,51.5,30.15,WNW,292,0.0,0.0,90,0.00,,CLR,0.04,VWS V12.08,2013-01-12 15:22:00,
2013-01-12 10:27:00,54.3,51.5,30.15,WNW,292,0.0,0.0,90,0.00,,CLR,0.04,VWS V12.08,2013-01-12 15:27:00,
2013-01-12 10:32:00,55.0,51.9,30.15,WNW,292,0.0,0.0,89,0.00,,CLR,0.04,VWS V12.08,2013-01-12 15:32:00,
2013-01-12 10:37:00,55.6,52.4,30.15,WNW,292,0.0,0.0,89,0.00,,CLR,0.04,VWS V12.08,2013-01-12 15:37:00,
2013-01-12 10:42:00,55.9,52.8,30.14,NW,315,0.0,0.0,89,0.00,,CLR,0.04,VWS V12.08,2013-01-12 15:42:00,
2013-01-12 10:47:00,55.9,52.8,30.14,WNW,292,0.0,0.0,89,0.00,,CLR,0.04,VWS V12.08,2013-01-12 15:47:00,
2013-01-12 10:52:00,56.3,53.1,30.14,WNW,292,0.0,0.0,89,0.00,,CLR,0.04,VWS V12.08,2013-01-12 15:52:00,
2013-01-12 10:57:00,56.5,53.3,30.14,WNW,292,0.0,0.0,89,0.00,,CLR,0.04,VWS V12.08,2013-01-12 15:57:00,
2013-01-12 11:02:00,56.7,53.2,30.14,WNW,292,0.0,0.0,88,0.00,,CLR,0.02,VWS V12.08,2013-01-12 16:02:00,
2013-01-12 11:07:00,56.8,53.3,30.14,WNW,292,0.0,0.0,88,0.00,,CLR,0.02,VWS V12.08,2013-01-12 16:07:00,
2013-01-12 11:12:00,57.0,53.8,30.14,WNW,292,0.0,0.0,89,0.00,,CLR,0.02,VWS V12.08,2013-01-12 16:12:00,
2013-01-12 11:17:00,57.2,54.0,30.13,WNW,292,0.0,0.0,89,0.00,,CLR,0.02,VWS V12.08,2013-01-12 16:17:00,
2013-01-12 11:22:00,57.6,54.0,30.13,NE,45,0.0,0.0,88,0.00,,CLR,0.02,VWS V12.08,2013-01-12 16:22:00,
2013-01-12 11:27:00,57.7,54.2,30.13,NNE,22,0.0,0.0,88,0.00,,CLR,0.02,VWS V12.08,2013-01-12 16:27:00,
2013-01-12 11:32:00,57.9,54.4,30.13,NNW,338,0.0,0.0,88,0.00,,CLR,0.02,VWS V12.08,2013-01-12 16:32:00,
2013-01-12 11:37:00,58.1,54.3,30.12,NNW,338,0.0,0.0,87,0.00,,CLR,0.02,VWS V12.08,2013-01-12 16:37:00,
2013-01-12 11:42:00,58.3,54.4,30.12,NNW,338,0.0,0.0,87,0.00,,CLR,0.02,VWS V12.08,2013-01-12 16:42:00,
2013-01-12 11:47:00,58.8,55.0,30.12,NNW,338,0.0,0.0,87,0.00,,CLR,0.02,VWS V12.08,2013-01-12 16:47:00,
2013-01-12 11:52:00,58.8,55.0,30.12,NNW,338,0.0,0.0,87,0.00,,CLR,0.02,VWS V12.08,2013-01-12 16:52:00,
2013-01-12 11:57:00,58.8,55.0,30.11,NNW,338,0.0,0.0,87,0.00,,CLR,0.02,VWS V12.08,2013-01-12 16:57:00,
2013-01-12 12:02:00,58.8,55.0,30.11,NNW,338,0.0,0.0,87,0.00,,CLR,0.02,VWS V12.08,2013-01-12 17:02:00,
2013-01-12 12:07:00,59.9,55.7,30.11,NNW,338,0.0,0.0,86,0.00,,CLR,0.02,VWS V12.08,2013-01-12 17:07:00,
2013-01-12 12:12:00,60.1,55.9,30.11,NNW,338,0.0,0.0,86,0.00,,CLR,0.02,VWS V12.08,2013-01-12 17:12:00,
2013-01-12 12:17:00,60.1,55.9,30.11,NNW,338,0.0,0.0,86,0.00,,CLR,0.02,VWS V12.08,2013-01-12 17:17:00,
2013-01-12 12:22:00,60.3,55.7,30.11,NW,315,0.0,0.0,85,0.00,,CLR,0.02,VWS V12.08,2013-01-12 17:22:00,
2013-01-12 12:27:00,60.3,55.7,30.10,NW,315,0.0,0.0,85,0.00,,CLR,0.02,VWS V12.08,2013-01-12 17:27:00,
2013-01-12 12:32:00,61.0,56.5,30.10,NW,315,0.0,0.0,85,0.00,,CLR,0.02,VWS V12.08,2013-01-12 17:32:00,
2013-01-12 12:37:00,61.3,56.8,30.10,NNW,338,0.0,0.0,85,0.00,,CLR,0.02,VWS V12.08,2013-01-12 17:37:00,
2013-01-12 12:42:00,61.3,56.8,30.11,NNW,338,0.0,0.0,85,0.00,,CLR,0.02,VWS V12.08,2013-01-12 17:42:00,
2013-01-12 12:47:00,61.3,56.8,30.10,NNW,338,0.0,0.0,85,0.00,,CLR,0.02,VWS V12.08,2013-01-12 17:47:00,
2013-01-12 12:52:00,62.8,57.5,30.10,NW,315,0.0,0.0,83,0.00,,CLR,0.02,VWS V12.08,2013-01-12 17:52:00,
2013-01-12 12:57:00,63.3,58.1,30.10,NW,315,0.0,0.0,83,0.00,,CLR,0.02,VWS V12.08,2013-01-12 17:57:00,
2013-01-12 13:02:00,63.5,57.9,30.10,NE,45,0.0,0.0,82,0.00,,CLR,0.02,VWS V12.08,2013-01-12 18:02:00,
2013-01-12 13:07:00,63.5,57.9,30.10,North,0,0.0,0.0,82,0.00,,CLR,0.02,VWS V12.08,2013-01-12 18:07:00,
2013-01-12 13:12:00,63.7,58.1,30.09,NE,45,0.0,0.0,82,0.00,,CLR,0.02,VWS V12.08,2013-01-12 18:12:00,
2013-01-12 13:17:00,63.9,58.3,30.09,NE,45,0.0,0.0,82,0.00,,CLR,0.02,VWS V12.08,2013-01-12 18:17:00,
2013-01-12 13:22:00,63.7,57.8,30.09,NE,45,0.0,0.0,81,0.00,,CLR,0.02,VWS V12.08,2013-01-12 18:22:00,
2013-01-12 13:27:00,63.9,57.9,30.09,NE,45,0.0,0.0,81,0.00,,CLR,0.02,VWS V12.08,2013-01-12 18:27:00,
2013-01-12 13:32:00,64.0,58.1,30.09,NE,45,0.0,0.0,81,0.00,,CLR,0.02,VWS V12.08,2013-01-12 18:32:00,
2013-01-12 13:37:00,64.4,58.5,30.09,NE,45,0.0,0.0,81,0.00,,CLR,0.02,VWS V12.08,2013-01-12 18:37:00,
2013-01-12 13:42:00,64.6,58.6,30.09,NNW,338,0.0,0.0,81,0.00,,CLR,0.02,VWS V12.08,2013-01-12 18:42:00,
2013-01-12 13:47:00,64.8,58.5,30.09,NNW,338,0.0,0.0,80,0.00,,CLR,0.02,VWS V12.08,2013-01-12 18:47:00,
2013-01-12 13:52:00,64.9,58.6,30.09,NNW,338,0.0,0.0,80,0.00,,CLR,0.02,VWS V12.08,2013-01-12 18:52:00,
2013-01-12 13:57:00,64.9,58.6,30.09,NNW,338,0.0,0.0,80,0.00,,CLR,0.02,VWS V12.08,2013-01-12 18:57:00,
2013-01-12 14:02:00,65.3,59.0,30.09,NW,315,0.0,0.0,80,0.00,,CLR,0.02,VWS V12.08,2013-01-12 19:02:00,
2013-01-12 14:07:00,65.8,59.5,30.09,NW,315,0.0,0.0,80,0.00,,CLR,0.02,VWS V12.08,2013-01-12 19:07:00,
2013-01-12 14:12:00,66.0,59.3,30.09,NW,315,0.0,0.0,79,0.00,,CLR,0.02,VWS V12.08,2013-01-12 19:12:00,
2013-01-12 14:17:00,66.0,59.3,30.09,NW,315,0.0,0.0,79,0.00,,CLR,0.02,VWS V12.08,2013-01-12 19:17:00,
2013-01-12 14:22:00,66.7,59.7,30.09,NNW,338,0.0,0.0,78,0.00,,CLR,0.02,VWS V12.08,2013-01-12 19:22:00,
2013-01-12 14:27:00,66.7,59.7,30.09,NNW,338,0.0,0.0,78,0.00,,CLR,0.02,VWS V12.08,2013-01-12 19:27:00,
2013-01-12 14:32:00,66.6,59.5,30.09,NW,315,0.0,0.0,78,0.00,,CLR,0.02,VWS V12.08,2013-01-12 19:32:00,
2013-01-12 14:37:00,66.6,59.5,30.09,NW,315,0.0,0.0,78,0.00,,CLR,0.02,VWS V12.08,2013-01-12 19:37:00,
2013-01-12 14:42:00,66.0,59.0,30.09,NW,315,0.0,0.0,78,0.00,,CLR,0.02,VWS V12.08,2013-01-12 19:42:00,
2013-01-12 14:47:00,66.0,59.0,30.09,NW,315,0.0,0.0,78,0.00,,CLR,0.02,VWS V12.08,2013-01-12 19:47:00,
2013-01-12 14:52:00,66.0,59.0,30.09,NW,315,0.0,0.0,78,0.00,,CLR,0.02,VWS V12.08,2013-01-12 19:52:00,
2013-01-12 14:57:00,66.2,59.5,30.09,NW,315,0.0,0.0,79,0.00,,CLR,0.02,VWS V12.08,2013-01-12 19:57:00,
2013-01-12 15:02:00,66.2,59.5,30.09,NW,315,0.0,0.0,79,0.00,,CLR,0.02,VWS V12.08,2013-01-12 20:02:00,
2013-01-12 15:07:00,66.6,59.8,30.09,NW,315,0.0,0.0,79,0.00,,CLR,0.02,VWS V12.08,2013-01-12 20:07:00,
2013-01-12 15:12:00,66.7,60.0,30.09,NW,315,0.0,0.0,79,0.00,,CLR,0.02,VWS V12.08,2013-01-12 20:12:00,
2013-01-12 15:17:00,66.7,60.0,30.09,NW,315,0.0,0.0,79,0.00,,CLR,0.02,VWS V12.08,2013-01-12 20:17:00,
2013-01-12 15:22:00,67.1,60.0,30.09,NE,45,0.0,0.0,78,0.00,,CLR,0.02,VWS V12.08,2013-01-12 20:22:00,
2013-01-12 15:27:00,66.9,59.8,30.09,NE,45,0.0,0.0,78,0.00,,CLR,0.02,VWS V12.08,2013-01-12 20:27:00,
2013-01-12 15:32:00,66.7,59.7,30.09,NNE,22,0.0,0.0,78,0.00,,CLR,0.02,VWS V12.08,2013-01-12 20:32:00,
2013-01-12 15:37:00,66.7,59.7,30.09,North,0,0.0,0.0,78,0.00,,CLR,0.02,VWS V12.08,2013-01-12 20:37:00,
2013-01-12 15:42:00,66.7,59.7,30.09,North,0,0.0,0.0,78,0.00,,CLR,0.02,VWS V12.08,2013-01-12 20:42:00,
2013-01-12 15:47:00,66.7,59.7,30.09,NW,315,0.0,0.0,78,0.00,,CLR,0.02,VWS V12.08,2013-01-12 20:47:00,
2013-01-12 15:52:00,66.7,59.7,30.09,NW,315,0.0,0.0,78,0.00,,CLR,0.02,VWS V12.08,2013-01-12 20:52:00,
2013-01-12 15:57:00,66.7,59.7,30.09,NW,315,0.0,0.0,78,0.00,,CLR,0.02,VWS V12.08,2013-01-12 20:57:00,
2013-01-12 16:02:00,66.6,59.5,30.09,NW,315,0.0,0.0,78,0.00,,CLR,0.02,VWS V12.08,2013-01-12 21:02:00,
2013-01-12 16:07:00,66.4,59.3,30.09,NW,315,0.0,0.0,78,0.00,,CLR,0.02,VWS V12.08,2013-01-12 21:07:00,
2013-01-12 16:12:00,66.2,59.2,30.09,NW,315,0.0,0.0,78,0.00,,CLR,0.02,VWS V12.08,2013-01-12 21:12:00,
2013-01-12 16:17:00,66.2,59.2,30.09,NW,315,0.0,0.0,78,0.00,,CLR,0.02,VWS V12.08,2013-01-12 21:17:00,
2013-01-12 16:22:00,65.5,58.5,30.09,NW,315,0.0,0.0,78,0.00,,CLR,0.02,VWS V12.08,2013-01-12 21:22:00,
2013-01-12 16:27:00,65.1,58.5,30.09,NW,315,0.0,0.0,79,0.00,,CLR,0.02,VWS V12.08,2013-01-12 21:27:00,
2013-01-12 16:32:00,64.9,58.3,30.09,NW,315,0.0,0.0,79,0.00,,CLR,0.02,VWS V12.08,2013-01-12 21:32:00,
2013-01-12 16:37:00,64.8,58.5,30.09,NW,315,0.0,0.0,80,0.00,,CLR,0.02,VWS V12.08,2013-01-12 21:37:00,
2013-01-12 16:42:00,64.8,58.5,30.09,NW,315,0.0,0.0,80,0.00,,CLR,0.02,VWS V12.08,2013-01-12 21:42:00,
2013-01-12 16:47:00,64.6,58.3,30.09,NW,315,0.0,0.0,80,0.00,,CLR,0.02,VWS V12.08,2013-01-12 21:47:00,
2013-01-12 16:52:00,64.6,58.3,30.09,NW,315,0.0,0.0,80,0.00,,CLR,0.02,VWS V12.08,2013-01-12 21:52:00,
2013-01-12 16:57:00,64.6,58.6,30.09,NW,315,0.0,0.0,81,0.00,,CLR,0.02,VWS V12.08,2013-01-12 21:57:00,
2013-01-12 17:02:00,64.2,58.3,30.09,NW,315,0.0,0.0,81,0.00,,CLR,0.02,VWS V12.08,2013-01-12 22:02:00,
2013-01-12 17:07:00,64.2,58.3,30.09,NW,315,0.0,0.0,81,0.00,,CLR,0.02,VWS V12.08,2013-01-12 22:07:00,
2013-01-12 17:12:00,64.2,58.3,30.09,NW,315,0.0,0.0,81,0.00,,CLR,0.02,VWS V12.08,2013-01-12 22:12:00,
2013-01-12 17:17:00,64.0,58.1,30.09,NW,315,0.0,0.0,81,0.00,,CLR,0.02,VWS V12.08,2013-01-12 22:17:00,
2013-01-12 17:22:00,63.7,57.8,30.09,NW,315,0.0,0.0,81,0.00,,CLR,0.02,VWS V12.08,2013-01-12 22:22:00,
2013-01-12 17:27:00,63.1,57.2,30.09,NW,315,0.0,0.0,81,0.00,,CLR,0.02,VWS V12.08,2013-01-12 22:27:00,
2013-01-12 17:32:00,63.0,57.0,30.09,NW,315,0.0,0.0,81,0.00,,CLR,0.02,VWS V12.08,2013-01-12 22:32:00,
2013-01-12 17:37:00,63.0,57.0,30.09,NW,315,0.0,0.0,81,0.00,,CLR,0.02,VWS V12.08,2013-01-12 22:37:00,
2013-01-12 17:42:00,62.2,56.7,30.09,NW,315,0.0,0.0,82,0.00,,CLR,0.02,VWS V12.08,2013-01-12 22:42:00,
2013-01-12 17:47:00,61.9,56.3,30.09,NW,315,0.0,0.0,82,0.00,,CLR,0.02,VWS V12.08,2013-01-12 22:47:00,
2013-01-12 17:52:00,61.9,56.3,30.09,NW,315,0.0,0.0,82,0.00,,CLR,0.02,VWS V12.08,2013-01-12 22:52:00,
2013-01-12 17:57:00,61.9,56.3,30.09,NW,315,0.0,0.0,82,0.00,,CLR,0.02,VWS V12.08,2013-01-12 22:57:00,
2013-01-12 18:02:00,60.6,55.4,30.08,NW,315,0.0,0.0,83,0.00,,CLR,0.02,VWS V12.08,2013-01-12 23:02:00,
2013-01-12 18:07:00,60.4,55.3,30.08,NW,315,0.0,0.0,83,0.00,,CLR,0.02,VWS V12.08,2013-01-12 23:07:00,
2013-01-12 18:12:00,60.4,55.3,30.08,NW,315,0.0,0.0,83,0.00,,CLR,0.02,VWS V12.08,2013-01-12 23:12:00,
2013-01-12 18:17:00,60.1,55.2,30.09,NW,315,0.0,0.0,84,0.00,,CLR,0.02,VWS V12.08,2013-01-12 23:17:00,
2013-01-12 18:22:00,59.9,55.1,30.09,NW,315,0.0,0.0,84,0.00,,CLR,0.02,VWS V12.08,2013-01-12 23:22:00,
2013-01-12 18:27:00,59.5,54.7,30.09,NW,315,0.0,0.0,84,0.00,,CLR,0.02,VWS V12.08,2013-01-12 23:27:00,
2013-01-12 18:32:00,59.2,54.4,30.09,NW,315,0.0,0.0,84,0.00,,CLR,0.02,VWS V12.08,2013-01-12 23:32:00,
2013-01-12 18:37:00,58.8,54.0,30.09,NW,315,0.0,0.0,84,0.00,,CLR,0.02,VWS V12.08,2013-01-12 23:37:00,
2013-01-12 18:42:00,58.8,54.3,30.09,NW,315,0.0,0.0,85,0.00,,CLR,0.02,VWS V12.08,2013-01-12 23:42:00,
2013-01-12 18:47:00,58.8,54.3,30.09,NW,315,0.0,0.0,85,0.00,,CLR,0.02,VWS V12.08,2013-01-12 23:47:00,
2013-01-12 18:53:00,58.8,54.3,30.09,NW,315,0.0,0.0,85,0.00,,CLR,0.02,VWS V12.08,2013-01-12 23:53:00,
2013-01-12 18:58:00,58.8,54.3,30.09,NW,315,0.0,0.0,85,0.00,,CLR,0.02,VWS V12.08,2013-01-12 23:58:00,
2013-01-12 19:03:00,58.3,53.8,30.09,NW,315,0.0,0.0,85,0.00,,CLR,0.02,VWS V12.08,2013-01-13 00:03:00,
2013-01-12 19:08:00,58.3,54.1,30.09,NW,315,0.0,0.0,86,0.00,,CLR,0.02,VWS V12.08,2013-01-13 00:08:00,
2013-01-12 19:13:00,58.1,53.9,30.09,NW,315,0.0,0.0,86,0.00,,CLR,0.02,VWS V12.08,2013-01-13 00:13:00,
2013-01-12 19:18:00,57.9,53.8,30.09,NW,315,0.0,0.0,86,0.00,,CLR,0.02,VWS V12.08,2013-01-13 00:18:00,
2013-01-12 19:23:00,57.9,53.8,30.09,NW,315,0.0,0.0,86,0.00,,CLR,0.02,VWS V12.08,2013-01-13 00:23:00,
2013-01-12 19:28:00,57.9,53.8,30.09,NW,315,0.0,0.0,86,0.00,,CLR,0.02,VWS V12.08,2013-01-13 00:28:00,
2013-01-12 19:33:00,57.9,53.8,30.09,NW,315,0.0,0.0,86,0.00,,CLR,0.02,VWS V12.08,2013-01-13 00:33:00,
2013-01-12 19:38:00,57.9,53.8,30.09,NW,315,0.0,0.0,86,0.00,,CLR,0.02,VWS V12.08,2013-01-13 00:38:00,
2013-01-12 19:43:00,57.7,53.6,30.09,NW,315,0.0,0.0,86,0.00,,CLR,0.02,VWS V12.08,2013-01-13 00:43:00,
2013-01-12 19:48:00,57.7,53.6,30.09,NW,315,0.0,0.0,86,0.00,,CLR,0.02,VWS V12.08,2013-01-13 00:48:00,
2013-01-12 19:53:00,57.7,53.9,30.09,WNW,292,0.0,0.0,87,0.00,,CLR,0.02,VWS V12.08,2013-01-13 00:53:00,
2013-01-12 19:58:00,57.7,53.9,30.09,WNW,292,0.0,0.0,87,0.00,,CLR,0.02,VWS V12.08,2013-01-13 00:58:00,
2013-01-12 20:03:00,57.7,53.9,30.09,WSW,248,0.0,0.0,87,0.00,,CLR,0.02,VWS V12.08,2013-01-13 01:03:00,
2013-01-12 20:08:00,57.7,53.9,30.09,WSW,248,0.0,0.0,87,0.00,,CLR,0.02,VWS V12.08,2013-01-13 01:08:00,
2013-01-12 20:13:00,57.7,53.9,30.09,WSW,248,0.0,0.0,87,0.00,,CLR,0.02,VWS V12.08,2013-01-13 01:13:00,
2013-01-12 20:18:00,57.6,53.7,30.09,WSW,248,0.0,0.0,87,0.00,,CLR,0.02,VWS V12.08,2013-01-13 01:18:00,
2013-01-12 20:23:00,57.6,53.7,30.09,WSW,248,0.0,0.0,87,0.00,,CLR,0.02,VWS V12.08,2013-01-13 01:23:00,
2013-01-12 20:28:00,57.4,53.9,30.09,WSW,248,0.0,0.0,88,0.00,,CLR,0.02,VWS V12.08,2013-01-13 01:28:00,
2013-01-12 20:33:00,57.4,53.9,30.09,WSW,248,0.0,0.0,88,0.00,,CLR,0.02,VWS V12.08,2013-01-13 01:33:00,
2013-01-12 20:38:00,57.4,53.9,30.09,WSW,248,0.0,0.0,88,0.00,,CLR,0.02,VWS V12.08,2013-01-13 01:38:00,
2013-01-12 20:43:00,57.4,53.9,30.09,WSW,248,0.0,0.0,88,0.00,,CLR,0.02,VWS V12.08,2013-01-13 01:43:00,
2013-01-12 20:48:00,57.4,53.9,30.09,WSW,248,0.0,0.0,88,0.00,,CLR,0.02,VWS V12.08,2013-01-13 01:48:00,
2013-01-12 20:53:00,57.4,53.9,30.09,WSW,248,0.0,0.0,88,0.00,,CLR,0.02,VWS V12.08,2013-01-13 01:53:00,
2013-01-12 20:58:00,57.4,53.9,30.09,WSW,248,0.0,0.0,88,0.00,,CLR,0.02,VWS V12.08,2013-01-13 01:58:00,
2013-01-12 21:03:00,57.4,53.9,30.09,WSW,248,0.0,0.0,88,0.00,,CLR,0.02,VWS V12.08,2013-01-13 02:03:00,
2013-01-12 21:08:00,57.0,53.5,30.09,WSW,248,0.0,0.0,88,0.00,,CLR,0.02,VWS V12.08,2013-01-13 02:08:00,
2013-01-12 21:13:00,57.0,53.5,30.09,WSW,248,0.0,0.0,88,0.00,,CLR,0.02,VWS V12.08,2013-01-13 02:13:00,
2013-01-12 21:18:00,57.0,53.5,30.08,WSW,248,0.0,0.0,88,0.00,,CLR,0.02,VWS V12.08,2013-01-13 02:18:00,
2013-01-12 21:24:00,56.8,53.3,30.08,WSW,248,0.0,0.0,88,0.00,,CLR,0.02,VWS V12.08,2013-01-13 02:24:00,
2013-01-12 21:29:00,56.8,53.3,30.09,WSW,248,0.0,0.0,88,0.00,,CLR,0.02,VWS V12.08,2013-01-13 02:29:00,
2013-01-12 21:34:00,56.8,53.3,30.09,WSW,248,0.0,0.0,88,0.00,,CLR,0.02,VWS V12.08,2013-01-13 02:34:00,
2013-01-12 21:39:00,56.5,53.0,30.09,WSW,248,0.0,0.0,88,0.00,,CLR,0.02,VWS V12.08,2013-01-13 02:39:00,
2013-01-12 21:44:00,56.5,53.0,30.08,WSW,248,0.0,0.0,88,0.00,,CLR,0.02,VWS V12.08,2013-01-13 02:44:00,
2013-01-12 21:49:00,56.3,52.8,30.09,WSW,248,0.0,0.0,88,0.00,,CLR,0.02,VWS V12.08,2013-01-13 02:49:00,
2013-01-12 21:54:00,56.3,52.8,30.08,WSW,248,0.0,0.0,88,0.00,,CLR,0.02,VWS V12.08,2013-01-13 02:54:00,
2013-01-12 21:59:00,56.1,52.6,30.08,WSW,248,0.0,0.0,88,0.00,,CLR,0.02,VWS V12.08,2013-01-13 02:59:00,
2013-01-12 22:04:00,55.9,52.4,30.08,WSW,248,0.0,0.0,88,0.00,,CLR,0.02,VWS V12.08,2013-01-13 03:04:00,
2013-01-12 22:09:00,55.8,52.3,30.08,WSW,248,0.0,0.0,88,0.00,,CLR,0.02,VWS V12.08,2013-01-13 03:09:00,
2013-01-12 22:14:00,55.6,52.1,30.08,WSW,248,0.0,0.0,88,0.00,,CLR,0.02,VWS V12.08,2013-01-13 03:14:00,
2013-01-12 22:19:00,55.4,51.9,30.08,WSW,248,0.0,0.0,88,0.00,,CLR,0.02,VWS V12.08,2013-01-13 03:19:00,
2013-01-12 22:24:00,55.2,51.7,30.07,WSW,248,0.0,0.0,88,0.00,,CLR,0.02,VWS V12.08,2013-01-13 03:24:00,
2013-01-12 22:29:00,55.2,51.7,30.08,WSW,248,0.0,0.0,88,0.00,,CLR,0.02,VWS V12.08,2013-01-13 03:29:00,
2013-01-12 22:34:00,55.2,51.7,30.07,WSW,248,0.0,0.0,88,0.00,,CLR,0.02,VWS V12.08,2013-01-13 03:34:00,
2013-01-12 22:39:00,54.7,51.2,30.07,WSW,248,0.0,0.0,88,0.00,,CLR,0.02,VWS V12.08,2013-01-13 03:39:00,
2013-01-12 22:44:00,54.7,51.2,30.07,WSW,248,0.0,0.0,88,0.00,,CLR,0.02,VWS V12.08,2013-01-13 03:44:00,
2013-01-12 22:49:00,54.7,51.2,30.08,SW,225,0.0,0.0,88,0.00,,CLR,0.02,VWS V12.08,2013-01-13 03:49:00,
2013-01-12 22:54:00,54.7,51.2,30.08,SW,225,0.0,0.0,88,0.00,,CLR,0.02,VWS V12.08,2013-01-13 03:54:00,
2013-01-12 22:59:00,54.5,51.0,30.07,SW,225,0.0,0.0,88,0.00,,CLR,0.02,VWS V12.08,2013-01-13 03:59:00,
2013-01-12 23:04:00,54.3,50.8,30.07,SW,225,0.0,0.0,88,0.00,,CLR,0.02,VWS V12.08,2013-01-13 04:04:00,
2013-01-12 23:09:00,54.3,50.8,30.07,NE,45,0.0,0.0,88,0.00,,CLR,0.02,VWS V12.08,2013-01-13 04:09:00,
2013-01-12 23:14:00,54.1,50.7,30.08,NE,45,0.0,0.0,88,0.00,,CLR,0.02,VWS V12.08,2013-01-13 04:14:00,
2013-01-12 23:19:00,54.0,50.5,30.08,NE,45,0.0,0.0,88,0.00,,CLR,0.02,VWS V12.08,2013-01-13 04:19:00,
2013-01-12 23:24:00,53.8,50.3,30.08,NE,45,0.0,0.0,88,0.00,,CLR,0.02,VWS V12.08,2013-01-13 04:24:00,
2013-01-12 23:29:00,53.8,50.3,30.08,NE,45,0.0,0.0,88,0.00,,CLR,0.02,VWS V12.08,2013-01-13 04:29:00,
2013-01-12 23:34:00,53.4,50.0,30.08,NW,315,0.0,0.0,88,0.00,,CLR,0.02,VWS V12.08,2013-01-13 04:34:00,
2013-01-12 23:39:00,53.4,50.0,30.08,NE,45,0.0,0.0,88,0.00,,CLR,0.02,VWS V12.08,2013-01-13 04:39:00,
2013-01-12 23:44:00,53.2,49.8,30.08,NE,45,0.0,0.0,88,0.00,,CLR,0.02,VWS V12.08,2013-01-13 04:44:00,
2013-01-12 23:49:00,53.2,49.8,30.08,NE,45,0.0,0.0,88,0.00,,CLR,0.02,VWS V12.08,2013-01-13 04:49:00,
2013-01-12 23:54:00,53.2,49.8,30.08,NE,45,0.0,0.0,88,0.00,,CLR,0.02,VWS V12.08,2013-01-13 04:54:00,
2013-01-12 23:59:00,53.2,49.8,30.08,ENE,68,0.0,0.0,88,0.00,,CLR,0.02,VWS V12.08,2013-01-13 04:59:00,